Weather History for Montrose, CO

Change the Weather History Date:

Wednesday, April 3, 2013

  Actual Average Record
Temperature  
Mean Temperature 48 °F 46 °F  
Max Temperature 62 °F 59 °F 71 °F (2002)
Min Temperature 34 °F 32 °F 28 °F (1999)
Degree Days  
Heating Degree Days 17 19  
Month to date heating degree days 43 59  
Since 1 July heating degree days 5429 5515  
Cooling Degree Days 0 0  
Month to date cooling degree days 0 0  
Year to date cooling degree days 0 0  
Moisture  
Dew Point 29 °F    
Average Humidity 56    
Maximum Humidity 89    
Minimum Humidity 22    
Precipitation  
Precipitation T in 0.03 in 0.12 in (2011)
Month to date precipitation 0.04 0.09  
Year to date precipitation 1.27 2.34  
Sea Level Pressure  
Sea Level Pressure 30.08 in    
Wind  
Wind Speed 4 mph (SE)    
Max Wind Speed 14 mph    
Max Gust Speed 16 mph    
Visibility 10 miles    
Events Rain    
T = Trace of Precipitation, MM = Missing Value Source: NWS Daily Summary

Daily Weather History Graph

Daily Weather History Graph

Search for Another Location

Airport:

Trip Planner

Search our weather history database for the weather conditions in past years. The results will help you decide how hot, cold, wet, or windy it might be!

Date:

Astronomy

Apr. 03, 2013 Rise Set
Actual Time 6:52 AM MDT 7:37 PM MDT
Civil Twilight 6:26 AM MDT 8:03 PM MDT
Nautical Twilight 5:54 AM MDT 8:35 PM MDT
Astronomical Twilight 5:21 AM MDT 9:08 PM MDT
Moon 2:31 AM MDT (4/3) 12:57 PM MDT (4/3)
Length of Visible Light 13h 37m
Length of Day
12h 44m
Last Quarter, 44% of the Moon is Illuminated
Apr 3
Last Quarter
Apr 10
New
Apr 18
First Quarter
Apr 25
Full
May 2
Last Quarter

Hourly Weather History & Observations

Time (MDT) Temp. Windchill Dew Point Humidity Pressure Visibility Wind Dir Wind Speed Gust Speed Precip Events Conditions
12:53 AM 37.0 °F 33.3 °F 32.0 °F 82% 29.98 in 10.0 mi SE 4.6 mph - N/A   Clear
1:53 AM 34.0 °F 31.0 °F 30.0 °F 85% 30.01 in 10.0 mi ESE 3.5 mph - N/A   Clear
2:53 AM 34.0 °F - 30.0 °F 85% 30.02 in 10.0 mi Calm Calm - N/A   Clear
3:53 AM 37.0 °F 34.5 °F 33.1 °F 86% 30.03 in 10.0 mi South 3.5 mph - N/A   Overcast
4:53 AM 37.9 °F - 33.1 °F 83% 30.06 in 10.0 mi Calm Calm - 0.00 in   Overcast
5:53 AM 39.0 °F 36.8 °F 35.1 °F 86% 30.08 in 10.0 mi ESE 3.5 mph - 0.00 in Rain Light Rain
6:53 AM 39.0 °F - 34.0 °F 82% 30.10 in 10.0 mi Calm Calm - 0.00 in   Overcast
7:53 AM 41.0 °F 39.0 °F 35.1 °F 79% 30.11 in 10.0 mi SSE 3.5 mph - N/A   Overcast
8:53 AM 43.0 °F 41.3 °F 35.1 °F 74% 30.12 in 10.0 mi SSE 3.5 mph - N/A   Partly Cloudy
9:38 AM 46.4 °F - 33.8 °F 62% 30.20 in 10.0 mi Calm Calm - N/A   Mostly Cloudy
9:53 AM 46.9 °F - 33.1 °F 59% 30.12 in 10.0 mi Calm Calm - N/A   Mostly Cloudy
10:17 AM 46.4 °F 45.2 °F 33.8 °F 62% 30.20 in 10.0 mi SW 3.5 mph - N/A   Partly Cloudy
10:53 AM 48.0 °F - 33.1 °F 56% 30.12 in 10.0 mi Calm Calm - N/A   Clear
11:53 AM 51.1 °F - 32.0 °F 48% 30.11 in 10.0 mi SE 4.6 mph - N/A   Clear
12:53 PM 53.1 °F - 30.9 °F 43% 30.10 in 10.0 mi Variable 3.5 mph - N/A   Partly Cloudy
1:53 PM 55.0 °F - 28.9 °F 37% 30.09 in 10.0 mi Calm Calm - N/A   Partly Cloudy
2:53 PM 57.0 °F - 27.0 °F 32% 30.07 in 10.0 mi ESE 4.6 mph - N/A   Clear
3:53 PM 61.0 °F - 23.0 °F 23% 30.03 in 10.0 mi Variable 3.5 mph - N/A   Clear
4:53 PM 61.0 °F - 23.0 °F 23% 30.01 in 10.0 mi NNW 9.2 mph - N/A   Clear
5:53 PM 61.0 °F - 21.0 °F 21% 30.01 in 10.0 mi North 5.8 mph - N/A   Clear
6:53 PM 61.0 °F - 21.0 °F 21% 30.02 in 10.0 mi North 3.5 mph - N/A   Clear
7:53 PM 57.0 °F - 21.9 °F 26% 30.02 in 10.0 mi Calm Calm - N/A   Clear
8:53 PM 50.0 °F - 23.0 °F 35% 30.07 in 10.0 mi South 5.8 mph - N/A   Clear
9:53 PM 48.0 °F - 26.1 °F 42% 30.10 in 10.0 mi SE 9.2 mph - N/A   Scattered Clouds
10:53 PM 46.0 °F 41.0 °F 26.1 °F 46% 30.11 in 10.0 mi SE 10.4 mph - N/A   Clear
11:53 PM 46.0 °F 39.9 °F 24.1 °F 42% 30.10 in 10.0 mi SSE 13.8 mph - N/A   Clear